Location: Arbon
(43.0005°N, 0.7472°E)
Time: 02:27:03
(UTC+00:00)

Vanguard 3 - Pass Details

Date: 27 November 2020
Orbit: 508 x 3262 km, 33.3° (Epoch: 22 January)

Event Time Altitude Azimuth Distance (km) Brightness Sun altitude
Exits shadow 03:02:37 15° 172° (S) 3,884 10.5 -43.6°
Drops below altitude 10° 03:05:30 10° 161° (SSE) 4,569 11.0 -43.1°
Sets 03:11:34 0° 147° (SSE) 6,135 11.9 -42.0°
